Granada, Spain

10:55 AM CET on February 24, 2017 (GMT +0100)
Granada

Weather History for LEGR - August, 2014

Change the Weather History Date:

Sunday, August 10, 2014

  Actual Average Record
Temperature  
Mean Temperature 79 °F -  
Max Temperature 100 °F 88 °F 107 °F (2012)
Min Temperature 58 °F 57 °F 53 °F (1999)
Cooling Degree Days 14    
Growing Degree Days 29 (Base 50)    
Moisture  
Dew Point 46 °F    
Average Humidity 28    
Maximum Humidity 68    
Minimum Humidity 4    
Precipitation  
Precipitation 0.00 in - - ()
Sea Level Pressure  
Sea Level Pressure 29.95 in    
Wind  
Wind Speed 4 mph ()    
Max Wind Speed 13 mph    
Max Gust Speed 16 mph    
Visibility 18.8 miles    
Events      
Averages and records for this station are not official NWS values.
T = Trace of Precipitation, MM = Missing Value Source: Averaged Metar Reports

Daily Weather History Graph

Daily Weather History Graph

Search for Another Location

Airport or City:

Trip Planner

Search our weather history database for the weather conditions in past years. The results will help you decide how hot, cold, wet, or windy it might be!

Date:

Astronomy

Aug. 10, 2014 Rise Set
Actual Time 7:27 AM CEST 9:13 PM CEST
Civil Twilight 6:59 AM CEST 9:41 PM CEST
Nautical Twilight 6:25 AM CEST 10:15 PM CEST
Astronomical Twilight 5:48 AM CEST 10:51 PM CEST
Moon 8:51 PM CEST (8/10) 7:01 AM CEST (8/10)
Length of Visible Light 14h 42m
Length of Day
13h 45m
Full, 100% of the Moon is Illuminated
Aug 10
Full
Aug 10
Full
Aug 17
Last Quarter
Aug 25
New
Sep 2
First Quarter

Hourly Weather History & Observations

Time (CEST) Temp. Dew Point Humidity Pressure Visibility Wind Dir Wind Speed Gust Speed Precip Events Conditions
12:00 AM 79 °F 45 °F 20% 29.87 in 19 mi WSW 8.1 mph - -  
1:00 AM 78 °F 47 °F 23% 29.89 in 19 mi West 1.2 mph - -  
2:00 AM 72 °F 51 °F 36% 29.91 in 19 mi NNW 2.3 mph - -  
3:00 AM 69 °F 49 °F 37% 29.93 in 19 mi South 2.3 mph - -  
4:00 AM 67 °F 52 °F 47% 29.93 in 19 mi Calm Calm - -  
5:00 AM 65 °F 49 °F 46% 29.94 in 19 mi Calm Calm - -  
6:00 AM 62 °F 53 °F 63% 29.94 in 19 mi Calm Calm - -  
6:00 AM 62.6 °F 51.8 °F 68% 29.98 in - Calm Calm - N/A   Clear
6:30 AM 62.6 °F 48.2 °F 59% 29.98 in - Calm Calm - N/A   Clear
7:00 AM 60 °F 48 °F 55% 29.96 in 19 mi Calm Calm - -  
7:30 AM 60.8 °F 48.2 °F 63% 29.98 in - Calm Calm - N/A   Clear
8:00 AM 62 °F 47 °F 48% 29.96 in 16 mi WSW 2.3 mph - -   Clear
8:00 AM 60.8 °F 48.2 °F 63% 30.01 in - Variable 2.3 mph - N/A   Clear
8:30 AM 64.4 °F 50.0 °F 59% 30.01 in - Variable 2.3 mph - N/A   Clear
9:00 AM 72 °F 49 °F 34% 29.94 in 19 mi Calm Calm - -  
9:00 AM 68.0 °F 50.0 °F 52% 30.01 in - Calm Calm - N/A   Clear
9:30 AM 73.4 °F 50.0 °F 44% 30.01 in - Calm Calm - N/A   Clear
10:00 AM 78 °F 51 °F 28% 29.93 in 16 mi East 2.3 mph - -  
10:00 AM 77.0 °F 51.8 °F 41% 30.01 in - Variable 1.2 mph - N/A   Clear
10:30 AM 78.8 °F 51.8 °F 39% 30.01 in - Calm Calm - N/A   Clear
11:00 AM 81 °F 52 °F 26% 29.92 in 19 mi North 1.2 mph - -   Clear
11:00 AM 78.8 °F 53.6 °F 42% 30.04 in - Variable 1.2 mph - N/A   Clear
11:30 AM 80.6 °F 51.8 °F 37% 30.04 in - Calm Calm - N/A   Clear
12:00 PM 87 °F 51 °F 20% 29.91 in 19 mi North 2.3 mph - -  
12:00 PM 84.2 °F 51.8 °F 33% 30.04 in - Variable 1.2 mph - N/A   Clear
12:30 PM 86.0 °F 51.8 °F 31% 30.04 in - North 3.5 mph - N/A   Clear
1:00 PM 92 °F 50 °F 15% 29.88 in 19 mi WNW 4.6 mph - -  
1:30 PM 91.4 °F 48.2 °F 23% 30.01 in - West 4.6 mph 16.1 mph N/A   Clear
2:00 PM 95 °F 44 °F 10% 29.86 in 19 mi WNW 3.5 mph - -   Clear
2:00 PM 91.4 °F 44.6 °F 20% 30.01 in - Variable 4.6 mph - N/A   Clear
2:30 PM 95.0 °F 41.0 °F 15% 30.01 in - West 3.5 mph - N/A   Clear
3:00 PM 98 °F 39 °F 7% 29.83 in 19 mi West 6.9 mph - -   Clear
3:00 PM 95.0 °F 39.2 °F 14% 30.01 in - Variable 5.8 mph - N/A   Clear
3:30 PM 96.8 °F 41.0 °F 15% 29.98 in - WNW 6.9 mph - N/A   Clear
4:00 PM 100 °F 31 °F 4% 29.81 in 19 mi WNW 8.1 mph - -  
4:00 PM 96.8 °F 33.8 °F 11% 29.98 in - WNW 6.9 mph - N/A   Clear
4:30 PM 96.8 °F 33.8 °F 11% 29.98 in - West 10.4 mph - N/A   Clear
5:00 PM 100 °F 36 °F 5% 29.80 in 19 mi West 10.4 mph - -   Clear
5:00 PM 98.6 °F 35.6 °F 11% 29.98 in - West 10.4 mph - N/A   Clear
5:30 PM 98.6 °F 41.0 °F 14% 29.95 in - West 10.4 mph - N/A   Clear
6:00 PM 98 °F 39 °F 7% 29.80 in 19 mi West 11.5 mph - -  
6:00 PM 96.8 °F 39.2 °F 14% 29.95 in - West 12.7 mph - N/A   Clear
6:30 PM 96.8 °F 41.0 °F 15% 29.95 in - WNW 11.5 mph - N/A   Clear
7:00 PM 97 °F 42 °F 8% 29.80 in 19 mi WNW 11.5 mph - -  
7:00 PM 95.0 °F 42.8 °F 16% 29.95 in - WNW 11.5 mph - N/A   Clear
7:30 PM 95.0 °F 44.6 °F 18% 29.95 in - WNW 9.2 mph - N/A   Clear
8:00 PM 95 °F 44 °F 10% 29.81 in 19 mi West 9.2 mph - -   Clear
8:00 PM 93.2 °F 46.4 °F 20% 29.95 in - West 9.2 mph - N/A   Clear
8:30 PM 91.4 °F 44.6 °F 20% 29.98 in - WNW 9.2 mph - N/A   Clear
9:00 PM 89 °F 46 °F 14% 29.84 in 19 mi West 6.9 mph - -  
9:00 PM 87.8 °F 48.2 °F 25% 29.98 in - West 5.8 mph - N/A   Clear
9:30 PM 82.4 °F 48.2 °F 30% 29.98 in - West 4.6 mph - N/A   Clear
10:00 PM 80 °F 46 °F 20% 29.89 in 19 mi WSW 2.3 mph - -  
10:00 PM 80.6 °F 46.4 °F 30% 29.98 in - Variable 1.2 mph - N/A   Clear
10:30 PM 82.4 °F 46.4 °F 28% 30.01 in - West 5.8 mph - N/A   Clear
11:00 PM 78 °F 45 °F 21% 29.92 in 19 mi WSW 3.5 mph - -  
11:00 PM 78.8 °F 46.4 °F 32% 30.01 in - West 4.6 mph - N/A   Clear
11:30 PM 75.2 °F 42.8 °F 31% 30.01 in - SSW 3.5 mph - N/A   Clear